Time,TemperatureF,DewpointF,PressureIn,WindDirection,WindDirectionDegrees,WindSpeedMPH,WindSpeedGustMPH,Humidity,HourlyPrecipIn,Conditions,Clouds,dailyrainin,SoftwareType,DateUTC
2013-03-10 00:01:00,28.1,26.0,30.36,NW,312,2.0,3.0,93,0.00,,,0.00,weatherlink.com 1.10,2013-03-10 05:01:00,
2013-03-10 00:16:00,28.1,26.0,30.36,NW,305,4.0,5.0,93,0.00,,,0.00,weatherlink.com 1.10,2013-03-10 05:16:00,
2013-03-10 00:31:00,27.7,26.0,30.37,NW,321,4.0,4.0,93,0.00,,,0.00,weatherlink.com 1.10,2013-03-10 05:31:00,
2013-03-10 00:46:00,27.8,26.0,30.37,NW,314,3.0,5.0,94,0.00,,,0.00,weatherlink.com 1.10,2013-03-10 05:46:00,
2013-03-10 01:01:00,27.9,26.0,30.37,NW,321,2.0,5.0,94,0.00,,,0.00,weatherlink.com 1.10,2013-03-10 06:01:00,
2013-03-10 01:16:00,27.7,26.0,30.37,NNW,329,1.0,3.0,93,0.00,,,0.00,weatherlink.com 1.10,2013-03-10 06:16:00,
2013-03-10 01:31:00,27.6,26.0,30.37,NW,325,3.0,4.0,94,0.00,,,0.00,weatherlink.com 1.10,2013-03-10 06:31:00,
2013-03-10 01:47:00,27.1,25.0,30.37,NNW,329,2.0,4.0,93,0.00,,,0.00,weatherlink.com 1.10,2013-03-10 06:47:00,
2013-03-10 03:02:00,27.0,26.0,30.37,NNW,337,2.0,4.0,94,0.00,,,0.00,weatherlink.com 1.10,2013-03-10 07:02:00,
2013-03-10 03:17:00,27.3,26.0,30.37,NW,318,2.0,3.0,94,0.00,,,0.00,weatherlink.com 1.10,2013-03-10 07:17:00,
2013-03-10 03:32:00,27.1,26.0,30.37,NW,309,2.0,3.0,94,0.00,,,0.00,weatherlink.com 1.10,2013-03-10 07:32:00,
2013-03-10 03:47:00,26.8,25.0,30.37,NW,311,2.0,3.0,94,0.00,,,0.00,weatherlink.com 1.10,2013-03-10 07:47:00,
2013-03-10 04:02:00,26.6,25.0,30.37,NW,311,2.0,3.0,94,0.00,,,0.00,weatherlink.com 1.10,2013-03-10 08:02:00,
2013-03-10 04:17:00,26.6,25.0,30.38,NW,315,3.0,3.0,94,0.00,,,0.00,weatherlink.com 1.10,2013-03-10 08:17:00,
2013-03-10 04:32:00,26.7,25.0,30.38,North,6,2.0,3.0,94,0.00,,,0.00,weatherlink.com 1.10,2013-03-10 08:32:00,
2013-03-10 04:47:00,27.2,26.0,30.38,NW,324,1.0,2.0,95,0.00,,,0.00,weatherlink.com 1.10,2013-03-10 08:47:00,
2013-03-10 05:02:00,28.5,27.0,30.38,NNW,329,3.0,5.0,95,0.00,,,0.00,weatherlink.com 1.10,2013-03-10 09:02:00,
2013-03-10 05:17:00,27.8,26.0,30.38,NW,319,4.0,5.0,93,0.00,,,0.00,weatherlink.com 1.10,2013-03-10 09:17:00,
2013-03-10 05:32:00,27.3,26.0,30.38,NW,319,2.0,5.0,93,0.00,,,0.00,weatherlink.com 1.10,2013-03-10 09:32:00,
2013-03-10 05:47:00,27.2,26.0,30.39,NW,317,3.0,4.0,93,0.00,,,0.00,weatherlink.com 1.10,2013-03-10 09:47:00,
2013-03-10 06:02:00,27.4,26.0,30.38,NNW,335,3.0,5.0,94,0.00,,,0.00,weatherlink.com 1.10,2013-03-10 10:02:00,
2013-03-10 06:17:00,28.1,27.0,30.38,NNW,335,3.0,5.0,94,0.00,,,0.00,weatherlink.com 1.10,2013-03-10 10:17:00,
2013-03-10 06:32:00,28.3,27.0,30.38,NW,311,1.0,4.0,94,0.00,,,0.00,weatherlink.com 1.10,2013-03-10 10:32:00,
2013-03-10 06:47:00,27.7,26.0,30.38,NW,319,2.0,5.0,93,0.00,,,0.00,weatherlink.com 1.10,2013-03-10 10:47:00,
2013-03-10 07:02:00,26.8,25.0,30.38,NW,316,3.0,4.0,93,0.00,,,0.00,weatherlink.com 1.10,2013-03-10 11:02:00,
2013-03-10 07:17:00,25.9,24.0,30.39,NW,314,4.0,6.0,93,0.00,,,0.00,weatherlink.com 1.10,2013-03-10 11:17:00,
2013-03-10 07:32:00,26.6,25.0,30.39,NW,318,3.0,5.0,94,0.00,,,0.00,weatherlink.com 1.10,2013-03-10 11:32:00,
2013-03-10 07:47:00,27.3,26.0,30.40,NW,317,2.0,6.0,93,0.00,,,0.00,weatherlink.com 1.10,2013-03-10 11:47:00,
2013-03-10 08:02:00,27.8,26.0,30.40,NNW,330,3.0,6.0,93,0.00,,,0.00,weatherlink.com 1.10,2013-03-10 12:02:00,
2013-03-10 08:17:00,28.1,26.0,30.41,NW,304,1.0,5.0,93,0.00,,,0.00,weatherlink.com 1.10,2013-03-10 12:17:00,
2013-03-10 08:32:00,28.4,26.0,30.41,NNW,336,4.0,6.0,92,0.00,,,0.00,weatherlink.com 1.10,2013-03-10 12:32:00,
2013-03-10 08:47:00,29.0,27.0,30.41,NNW,327,3.0,7.0,92,0.00,,,0.00,weatherlink.com 1.10,2013-03-10 12:47:00,
2013-03-10 09:02:00,29.5,28.0,30.41,NW,321,4.0,4.0,92,0.00,,,0.00,weatherlink.com 1.10,2013-03-10 13:02:00,
2013-03-10 09:17:00,30.1,28.0,30.41,NW,311,3.0,4.0,91,0.00,,,0.00,weatherlink.com 1.10,2013-03-10 13:17:00,
2013-03-10 09:32:00,30.4,28.0,30.42,NW,308,3.0,6.0,90,0.00,,,0.00,weatherlink.com 1.10,2013-03-10 13:32:00,
2013-03-10 09:47:00,31.7,29.0,30.41,NW,322,1.0,5.0,90,0.00,,,0.00,weatherlink.com 1.10,2013-03-10 13:47:00,
2013-03-10 10:02:00,32.6,30.0,30.42,NW,321,1.0,5.0,89,0.00,,,0.00,weatherlink.com 1.10,2013-03-10 14:02:00,
2013-03-10 10:17:00,33.8,30.0,30.42,WNW,302,2.0,4.0,86,0.00,,,0.00,weatherlink.com 1.10,2013-03-10 14:17:00,
2013-03-10 10:32:00,35.0,31.0,30.42,WNW,303,3.0,6.0,84,0.00,,,0.00,weatherlink.com 1.10,2013-03-10 14:32:00,
2013-03-10 10:47:00,36.4,31.0,30.42,NE,41,6.0,7.0,80,0.00,,,0.00,weatherlink.com 1.10,2013-03-10 14:47:00,
2013-03-10 11:02:00,36.6,30.0,30.41,NNW,331,2.0,12.0,78,0.00,,,0.00,weatherlink.com 1.10,2013-03-10 15:02:00,
2013-03-10 11:17:00,37.1,31.0,30.41,NE,51,5.0,10.0,77,0.00,,,0.00,weatherlink.com 1.10,2013-03-10 15:17:00,
2013-03-10 11:33:00,37.3,30.0,30.42,NE,53,4.0,9.0,76,0.00,,,0.00,weatherlink.com 1.10,2013-03-10 15:33:00,
2013-03-10 11:48:00,37.3,30.0,30.41,NNE,20,4.0,12.0,75,0.00,,,0.00,weatherlink.com 1.10,2013-03-10 15:48:00,
2013-03-10 12:03:00,37.5,31.0,30.40,NNE,33,7.0,10.0,76,0.00,,,0.00,weatherlink.com 1.10,2013-03-10 16:03:00,
2013-03-10 12:18:00,37.8,31.0,30.40,NNW,333,6.0,9.0,75,0.00,,,0.00,weatherlink.com 1.10,2013-03-10 16:18:00,
2013-03-10 12:33:00,39.1,31.0,30.40,ENE,72,3.0,8.0,74,0.00,,,0.00,weatherlink.com 1.10,2013-03-10 16:33:00,
2013-03-10 12:48:00,39.6,31.0,30.39,ENE,68,4.0,8.0,72,0.00,,,0.00,weatherlink.com 1.10,2013-03-10 16:48:00,
2013-03-10 13:03:00,39.5,30.0,30.39,East,85,6.0,11.0,70,0.00,,,0.00,weatherlink.com 1.10,2013-03-10 17:03:00,
2013-03-10 13:18:00,40.4,31.0,30.38,ESE,106,6.0,8.0,69,0.00,,,0.00,weatherlink.com 1.10,2013-03-10 17:18:00,
2013-03-10 13:33:00,41.0,31.0,30.38,East,101,4.0,10.0,68,0.00,,,0.00,weatherlink.com 1.10,2013-03-10 17:33:00,
2013-03-10 13:48:00,41.9,31.0,30.38,NNW,347,3.0,6.0,66,0.00,,,0.00,weatherlink.com 1.10,2013-03-10 17:48:00,
2013-03-10 14:03:00,42.8,31.0,30.37,ESE,115,1.0,6.0,64,0.00,,,0.00,weatherlink.com 1.10,2013-03-10 18:03:00,
2013-03-10 14:18:00,43.4,31.0,30.37,East,81,2.0,5.0,63,0.00,,,0.00,weatherlink.com 1.10,2013-03-10 18:18:00,
2013-03-10 14:33:00,44.5,32.0,30.36,NE,34,5.0,7.0,62,0.00,,,0.00,weatherlink.com 1.10,2013-03-10 18:33:00,
2013-03-10 14:48:00,44.0,31.0,30.36,SSE,156,2.0,6.0,60,0.00,,,0.00,weatherlink.com 1.10,2013-03-10 18:48:00,
2013-03-10 15:03:00,44.4,31.0,30.35,SSE,162,2.0,5.0,60,0.00,,,0.00,weatherlink.com 1.10,2013-03-10 19:03:00,
2013-03-10 15:18:00,45.2,31.0,30.35,ENE,58,6.0,6.0,58,0.00,,,0.00,weatherlink.com 1.10,2013-03-10 19:18:00,
2013-03-10 15:33:00,45.4,31.0,30.35,East,98,4.0,5.0,57,0.00,,,0.00,weatherlink.com 1.10,2013-03-10 19:33:00,
2013-03-10 15:48:00,45.3,31.0,30.34,NE,37,4.0,6.0,57,0.00,,,0.00,weatherlink.com 1.10,2013-03-10 19:48:00,
2013-03-10 16:03:00,45.2,31.0,30.34,East,93,4.0,6.0,57,0.00,,,0.00,weatherlink.com 1.10,2013-03-10 20:03:00,
2013-03-10 16:18:00,45.5,31.0,30.34,ENE,71,2.0,8.0,57,0.00,,,0.00,weatherlink.com 1.10,2013-03-10 20:18:00,
2013-03-10 16:48:00,46.5,30.0,30.34,East,81,4.0,5.0,54,0.00,,,0.00,weatherlink.com 1.10,2013-03-10 20:48:00,
2013-03-10 17:03:00,46.2,31.0,30.34,ENE,75,3.0,6.0,55,0.00,,,0.00,weatherlink.com 1.10,2013-03-10 21:03:00,
2013-03-10 17:18:00,46.0,31.0,30.33,East,89,3.0,6.0,56,0.00,,,0.00,weatherlink.com 1.10,2013-03-10 21:18:00,
2013-03-10 17:33:00,45.8,31.0,30.33,East,100,5.0,7.0,57,0.00,,,0.00,weatherlink.com 1.10,2013-03-10 21:33:00,
2013-03-10 17:48:00,45.5,31.0,30.33,NE,41,4.0,6.0,57,0.00,,,0.00,weatherlink.com 1.10,2013-03-10 21:48:00,
2013-03-10 18:03:00,44.8,31.0,30.33,ENE,62,4.0,8.0,58,0.00,,,0.00,weatherlink.com 1.10,2013-03-10 22:03:00,
2013-03-10 18:18:00,44.4,31.0,30.33,NE,50,3.0,6.0,60,0.00,,,0.00,weatherlink.com 1.10,2013-03-10 22:18:00,
2013-03-10 18:33:00,43.7,31.0,30.34,East,91,6.0,8.0,61,0.00,,,0.00,weatherlink.com 1.10,2013-03-10 22:33:00,
2013-03-10 18:48:00,42.8,30.0,30.34,East,87,3.0,7.0,62,0.00,,,0.00,weatherlink.com 1.10,2013-03-10 22:48:00,
2013-03-10 19:03:00,42.1,31.0,30.35,ESE,103,2.0,10.0,64,0.00,,,0.00,weatherlink.com 1.10,2013-03-10 23:03:00,
2013-03-10 19:18:00,41.2,31.0,30.35,East,98,6.0,9.0,66,0.00,,,0.00,weatherlink.com 1.10,2013-03-10 23:18:00,
2013-03-10 19:33:00,40.5,31.0,30.34,East,101,5.0,8.0,68,0.00,,,0.00,weatherlink.com 1.10,2013-03-10 23:33:00,
2013-03-10 19:48:00,39.9,31.0,30.35,SE,124,3.0,6.0,71,0.00,,,0.00,weatherlink.com 1.10,2013-03-10 23:48:00,
2013-03-10 20:03:00,39.4,32.0,30.35,SE,141,3.0,10.0,74,0.00,,,0.00,weatherlink.com 1.10,2013-03-11 00:03:00,
2013-03-10 20:18:00,38.7,32.0,30.36,SSE,153,4.0,10.0,76,0.00,,,0.00,weatherlink.com 1.10,2013-03-11 00:18:00,
2013-03-10 20:33:00,38.3,32.0,30.36,ESE,120,4.0,7.0,77,0.00,,,0.00,weatherlink.com 1.10,2013-03-11 00:33:00,
2013-03-10 20:48:00,37.8,32.0,30.35,ENE,70,5.0,10.0,78,0.00,,,0.00,weatherlink.com 1.10,2013-03-11 00:48:00,
2013-03-10 21:03:00,37.4,31.0,30.35,SE,143,4.0,10.0,79,0.00,,,0.00,weatherlink.com 1.10,2013-03-11 01:03:00,
2013-03-10 21:18:00,37.0,31.0,30.35,SE,131,2.0,8.0,80,0.00,,,0.00,weatherlink.com 1.10,2013-03-11 01:18:00,
2013-03-10 21:33:00,36.8,32.0,30.36,SSE,156,1.0,5.0,81,0.00,,,0.00,weatherlink.com 1.10,2013-03-11 01:33:00,
2013-03-10 21:48:00,36.6,31.0,30.34,SE,131,5.0,11.0,81,0.00,,,0.00,weatherlink.com 1.10,2013-03-11 01:48:00,
2013-03-10 22:03:00,36.4,31.0,30.34,SSE,160,7.0,10.0,82,0.00,,,0.00,weatherlink.com 1.10,2013-03-11 02:03:00,
2013-03-10 22:18:00,36.0,31.0,30.35,SE,127,4.0,7.0,83,0.00,,,0.00,weatherlink.com 1.10,2013-03-11 02:18:00,
2013-03-10 22:33:00,35.8,31.0,30.35,ESE,104,5.0,9.0,84,0.00,,,0.00,weatherlink.com 1.10,2013-03-11 02:33:00,
2013-03-10 22:49:00,35.5,31.0,30.35,SE,139,3.0,9.0,85,0.00,,,0.00,weatherlink.com 1.10,2013-03-11 02:49:00,
2013-03-10 23:03:00,35.3,32.0,30.35,SE,136,4.0,8.0,86,0.00,,,0.00,weatherlink.com 1.10,2013-03-11 03:03:00,
2013-03-10 23:18:00,35.2,31.0,30.35,South,179,5.0,8.0,86,0.00,,,0.00,weatherlink.com 1.10,2013-03-11 03:18:00,
2013-03-10 23:48:00,35.0,32.0,30.34,SW,217,1.0,8.0,87,0.00,,,0.00,weatherlink.com 1.10,2013-03-11 03:48:00,